www.pogodaiklimat.ru

Архив погоды в Каунасе (Литва)

Время
(UTC), дата
21 13.07
00 14.07
03 14.07
06 14.07
09 14.07
12 14.07
15 14.07
18 14.07
21 14.07
00 15.07
03 15.07
06 15.07
09 15.07
12 15.07
15 15.07
18 15.07
21 15.07
00 16.07
03 16.07
06 16.07
09 16.07
12 16.07
15 16.07
18 16.07
21 16.07
00 17.07
03 17.07
06 17.07
09 17.07
12 17.07
15 17.07
18 17.07
21 17.07
00 18.07
03 18.07
06 18.07
09 18.07
12 18.07
15 18.07
18 18.07
21 18.07
00 19.07
03 19.07
06 19.07
09 19.07
12 19.07
15 19.07
18 19.07
21 19.07
00 20.07
03 20.07
06 20.07
09 20.07
12 20.07
15 20.07
18 20.07
Ветер
(напр.,м/с)
Видим. Явления Облачность Т
(С)
Тd
(С)
f
(%)
Тe
(С)
Тes
(С)
Комфортность P
(гПа)
Po
(гПа)
Тmin
(С)
Tmax
(С)
R
(мм)
R24
(мм)
S
(см)
СЗ 2-4 {6} 20 км 4/4 1230 м
[Sc]
+21.4 +17.0 76 +25 +25 комфорт 1011.3 1002.3
Ю 1-1 {6} 20 км ясно +17.3 +16.0 92 +18 +18 тепло 1013.5 1004.3
Ю 2-2 {4} 16 км 8/0
[Cs]
+15.6 +14.8 95 +15 +16 по сезону 1014.4 1005.2
СЗ 2-4 {5} 20 км 8/3 750 м
[Cu hum Ac trans Ci sp]
+18.9 +13.4 70 +20 +23 тепло 1015.8 1006.7 +15.6
З 2-5 {5} 20 км 8/3 1000 м
[Cu Sc Ac trans Ci sp]
+22.0 +12.2 54 +24 +31 комфорт 1015.6 1006.6
СЗ 2-4 {6} 20 км 10/3 1500 м
[Sc Ac trans Cs]
+21.1 +11.6 55 +23 +28 комфорт 1016.1 1007.0
С 2-4 {5} 20 км 8/1 1500 м
[Sc Cs]
+22.4 +11.8 51 +25 +28 комфорт 1015.5 1006.4
штиль 0 {5} 20 км 3/3 1500 м
[Sc]
+22.4 +14.0 59 +26 +26 жарко 1015.9 1006.8 +23.2
СЗ 1-1 {2} 20 км 3/0
[Ci fib]
+16.0 +14.1 88 +17 +17 по сезону 1017.0 1007.8
С 1-1 {2} 19 км ясно +14.1 +13.1 94 +14 +14 по сезону 1016.9 1007.6
В 1-1 {2} 12 км 9/0
[Ac As]
+14.4 +13.7 96 +15 +15 по сезону 1017.3 1008.0
В 2-3 {3} 20 км 9/0
[Ac As]
+19.5 +14.9 75 +22 +24 комфорт 1017.5 1008.4 +12.7
В 2-4 {5} 20 км 8/0
[Ac trans]
+22.7 +13.7 57 +26 +33 жарко 1016.9 1007.9
В 2-4 {5} 20 км 1/1 1500 м
[Cu hum]
+25.9 +12.3 43 +27 +40 жарко 1016.1 1007.3
В 1-3 {7} 20 км 3/3 1500 м
[Cu med, cong]
+26.5 +12.9 43 +28 +33 жарко 1015.7 1006.8
В 2-2 {5} 20 км ясно +24.6 +14.4 53 +27 +27 жарко 1015.6 1006.6 +27.8
В 1-1 {3} 20 км ясно +18.7 +15.5 82 +21 +21 комфорт 1016.4 1007.2
В 1-2 {2} 20 км 3/0
[Ci fib]
+17.3 +15.8 91 +18 +18 тепло 1016.5 1007.3
ЮВ 1-1 {2} 19 км ясно +16.4 +15.8 96 +17 +17 тепло 1016.6 1007.4
Ю 4-5 {5} 19 км 3/0
[Ci fib]
+23.8 +18.1 70 +28 +32 душно 1016.7 1007.7 +15.9
Ю 5-8 {8} 18 км 5/1 1500 м
[Cu med, cong Ac trans Ci sp]
+28.3 +17.8 53 +33 +38 очень душно 1016.0 1007.2
Ю 5-8 {10} 20 км 5/3 1500 м
[Cu med, cong Ac trans Ci fib]
+30.8 +15.5 40 +33 +38 душно 1014.9 1006.1
ЮВ 5-8 {9} 20 км 3/1 1500 м
[Cu med, cong Ci fib]
+30.8 +14.8 38 +33 +35 душно 1013.0 1004.3
ЮВ 2-4 {10} 20 км 8/1 1500 м
[Sc diur, vesp Ac trans Ci sp]
+27.0 +15.4 49 +30 +30 душно 1013.0 1004.1 +31.5
ЮВ 2-4 {5} 20 км зарница 10/3 1500 м
[Cb cap Ac trans Cs]
+24.2 +14.8 56 +27 +27 жарко 1012.0 1003.2
В 1-2 {11} 20 км слаб. ливневой дождь {гроза} 10/3 1000 м
[Cb cap Ac As]
+19.2 +18.7 97 +22 +22 комфорт 1012.1 1003.0
ЮЗ 2-3 {5} 16 км {дождь} 10/10 720 м
[Sc]
+18.9 +18.4 97 +21 +21 комфорт 1013.6 1004.5
З 3-6 {6} 15 км {дождь} 10/10 240 м
[Sc]
+21.1 +19.6 91 +26 +26 душно 1015.2 1006.1 +18.5 4
З 4-8 {8} 20 км 8/8 840 м
[Cu Sc]
+24.8 +18.0 66 +29 +31 душно 1016.2 1007.2
З 4-8 {8} 20 км 5/3 1500 м
[Cu Sc Ac trans Ci fib]
+27.6 +15.5 48 +31 +36 душно 1016.4 1007.5
З 4-8 {9} 20 км 8/3 1500 м
[Sc diur, vesp Ci sp]
+28.2 +14.1 42 +30 +32 жарко 1016.3 1007.4
СЗ 2-4 {8} 20 км 8/0 2000 м
[Ac trans Ci sp]
+25.7 +14.8 51 +28 +28 жарко 1017.0 1008.2 +28.7
С 1-3 {8} 18 км 8/0 2000 м
[Ac trans Cs]
+20.5 +15.1 71 +24 +24 комфорт 1018.6 1009.5
З 1-1 {3} 19 км 9/1 1500 м
[Sc Ac As]
+18.3 +16.4 89 +20 +20 тепло 1019.1 1009.9
С 1-2 {3} 20 км 8/0
[Ac trans Cs]
+17.1 +15.2 89 +18 +18 тепло 1019.3 1010.1
С 3-4 {5} 20 км 10/6 1500 м
[Sc Ac As]
+19.7 +14.2 71 +22 +22 комфорт 1020.1 1011.0 +17.0
З 2-4 {5} 20 км 9/3 1500 м
[Cu Sc Ac trans]
+22.4 +13.1 56 +25 +30 комфорт 1020.0 1010.9
З 4-7 {8} 20 км 9/4 1000 м
[Sc Ac trans]
+23.6 +12.3 49 +25 +28 комфорт 1019.5 1010.5
СЗ 4-8 {9} 20 км 6/5 1300 м
[Cu Sc Ac trans]
+23.9 +13.6 52 +26 +28 жарко 1019.4 1010.4
СЗ 5-8 {10} 20 км ясно +21.2 +12.3 57 +23 +23 комфорт 1019.9 1010.8 +25.1
З 2-4 {9} 20 км ясно +16.6 +13.4 81 +17 +17 тепло 1020.8 1011.5
З 2-3 {5} 19 км 9/9 700 м
[Sc]
+14.6 +13.6 94 +14 +14 тепло 1020.8 1011.5
З 2-4 {4} 13 км 3/3 100 м
[St]
+13.6 +13.0 96 +13 +13 тепло 1020.4 1011.1
З 4-6 {7} 19 км 6/6 450 м
[Sc]
+17.6 +14.0 79 +17 +19 тепло 1020.0 1010.8 +13.2
СЗ 4-8 {8} 18 км 4/4 960 м
[Sc]
+21.4 +13.1 59 +24 +29 комфорт 1019.5 1010.4
З 5-9 {10} 19 км 4/3 1320 м
[Cu Sc Ci fib]
+23.3 +12.3 50 +26 +31 жарко 1018.9 1009.9
СЗ 5-9 {9} 19 км 6/6 1380 м
[Sc]
+23.4 +11.7 48 +26 +27 жарко 1017.7 1008.7
СЗ 4-7 {9} 20 км ясно +20.0 +12.0 60 +22 +22 комфорт 1017.7 1008.6 +24.2
СЗ 3-4 {8} 20 км ясно +16.0 +12.2 78 +16 +16 тепло 1017.4 1008.2
СЗ 2-3 {4} 20 км ясно +13.8 +12.0 89 +13 +13 по сезону 1016.9 1007.6
З 1-2 {3} 9000 м дымка 3/0
[Ac trans Ci fib]
+11.4 +11.0 97 +11 +11 прохладно 1016.5 1007.1
СЗ 2-4 {5} 20 км 4/1 300 м
[Sc Ac trans Ci sp]
+16.1 +13.1 82 +16 +20 по сезону 1016.0 1006.8 +10.7
В 1-3 {4} 19 км 4/4 930 м
[Cu med, cong]
+21.4 +13.2 60 +24 +34 комфорт 1014.9 1005.9
З 2-6 {6} 20 км 5/5 1380 м
[Cu med, cong]
+24.8 +12.4 46 +27 +33 жарко 1013.1 1004.3
СЗ 1-3 {7} 20 км 8/5 1500 м
[Cu med, cong Ac trans]
+24.8 +12.0 45 +26 +28 жарко 1011.9 1003.0
СЗ 2-4 {9} 11 км слаб. ливневой дождь 8/6 1000 м
[Cb cap Ac cuf]
+19.3 +15.9 81 +22 +22 комфорт 1012.3 1003.2 +25.3 0.9
Местоположение метеостанции Каунас (Литва): широта 54.88 долгота 23.83 высота над уровнем моря 77 м.
В архиве по умолчанию представлена погода в Каунасе за последнюю неделю. Архивные данные за месяц целиком и за предыдущие месяцы, начиная с января 2011 года, Вы можете получить, выбрав интересующий диапазон дат из раскрывающегося списка и нажав кнопку "Найти!".
*Определитесь, кто Вы:
Внимание! Время в таблицах - всемирное. Для получения местного времени необходимо прибавить поправку, которая равна 2 ч.
Некоторые строки с данными для отдельных станций могут быть выделены курсивом. Это означает, что фактические данные отсутствуют по различным причинам, а приведенные значения являются расчетными модельными данными для данного пункта наблюдений.
Смотрите также архив погоды в соседних городах и на ближайших метеорологических станциях:
Партнеры нашего сайта:      
Пояснения к столбцам:
  • Ветер - указаны скорость ветра в м/с - средняя за 10 мин, порывы в срок и между сроками (в фигурных скобках) и направление, откуда дует ветер: С - северный,
  • СВ - северо-восточный, В - восточный, ЮВ - юго-восточный, Ю - южный, ЮЗ - юго-западный, З - западный, СЗ - северо-западный.
  • Видимость - горизонтальная дальность видимости в метрах или километрах. При видимости от 1 до 10 км при отсутствии осадков обычно наблюдается дымка, при ухудшении видимости до 1 км и менее - туман. В сухую погоду видимость может ухудшаться дымом, пылью или мглою.
  • Явления - указаны атмосферные явления, наблюдавшиеся в срок или в последний час перед сроком; фигурными скобками обозначены явления, наблюдавшиеся между сроками (за 1-3 часа до срока); квадратными скобками обозначены град или гололедные отложения с указанием их диаметра в мм.
  • Облачность - указаны через наклонную черту общая и нижняя облачность в баллах и высота нижней границы облаков в метрах; квадратными скобками обозначены формы облаков: Ci - перистые, Cs - перисто-слоистые, Cc - перисто-кучевые, Ac - высококучевые, As - высокослоистые, Sc - слоисто-кучевые, Ns - слоисто-дождевые, Cu - кучевые, Cb - кучево-дождевые. Подробнее классификацию облаков см. в Атласе облаков (PDF).
  • T - Температура воздуха - температура, измеренная на высоте 2 м над землей.
  • Td - Температура точки росы - температура, при понижении до которой содержащийся в воздухе водяной пар достигнет насыщения.
  • f - Относительная влажность воздуха - влажноcть воздуха, измеренная на высоте 2 м над землей.
  • Te - Эффективная температура - температура, которую ощущает одетый по сезону человек в тени. Характеристика душности погоды. При расчете учитывается влияние влажности воздуха и скорости ветра на теплоощущения человека.
  • Tes - Эффективная температура на солнце - температура, которую ощущает человек, с поправкой на солнечный нагрев. Характеристика знойности погоды. Зависит от высоты солнца над горизонтом, облачности и скорости ветра. Ночью, в пасмурную погоду, а также при ветре 12 м/с и более поправка равна нулю.
  • P - Атмосферное давление - приведенное к уровню моря атмосферное давление.
  • Po - Атмосферное давление - измеренное на уровне метеостанции атмосферное давление.
  • Tmin - Минимальная температура - минимум температуры воздуха на высоте 2 м над землей.
  • Tmax - Максимальная температура - максимум температуры воздуха на высоте 2 м над землей.
  • R - Количество осадков - Количество выпавших осадков за период времени, мм. При наведении курсора мыши на число - период времени, за который выпало указанное количество осадков.
  • R24 - Количество осадков - Количество выпавших осадков за 24 часа, мм.
  • S - Снежный покров - Высота снежного покрова, см. При наведении курсора мыши на число - состояние снежного покрова и степень покрытия местности в баллах.